WA7BMK Weather Reports


Display with metric or nautical units.
time (UTC)temp
F
wind
direction
speed
MPH
gust
MPH
rain 1hr
in
rain 24hr
in
rain mn
in
humidity
%
barometer
mb
20260508030033 61 0 0.0 0.0 0.00 0.00 0.00 62 1017.0
20260508024535 62 0 0.0 0.0 0.00 0.00 0.00 61 1017.1
20260508023031 63 0 0.0 1.0 0.00 0.00 0.00 58 1017.3
20260508021537 64 103 0.0 3.0 0.00 0.00 0.00 56 1017.2
20260508020035 65 116 0.0 5.0 0.00 0.00 0.00 57 1017.4
20260508014535 65 0 0.0 3.0 0.00 0.00 0.00 56 1017.4
20260508013034 65 80 1.0 5.0 0.00 0.00 0.00 54 1017.5
20260508011544 64 0 0.0 3.0 0.00 0.00 0.00 57 1017.6
20260508010040 65 0 0.0 3.0 0.00 0.00 0.00 54 1017.8
20260508004539 67 119 0.0 4.0 0.00 0.00 0.00 52 1017.8
20260508003035 68 0 0.0 4.0 0.00 0.00 0.00 52 1017.8
20260508001540 66 17 0.0 4.0 0.00 0.00 0.00 53 1018.0
20260508000052 65 0 1.0 6.0 0.00 0.00 0.00 55 1018.1
20260507234543 64 265 1.0 4.0 0.00 0.00 0.00 57 1018.1
20260507233036 65 36 3.0 8.0 0.00 0.00 0.00 54 1018.1
20260507231542 66 263 1.0 4.0 0.00 0.00 0.00 55 1018.1
20260507230035 64 316 1.0 9.0 0.00 0.00 0.00 58 1018.3
20260507224538 65 325 1.0 6.0 0.00 0.00 0.00 58 1018.4
20260507223036 65 217 1.0 6.0 0.00 0.00 0.00 56 1018.5
20260507221536 64 247 0.0 6.0 0.00 0.00 0.00 58 1018.7
20260507220035 63 240 1.0 4.0 0.00 0.00 0.00 59 1018.9
20260507214536 63 0 1.0 6.0 0.00 0.00 0.00 61 1019.0
20260507213042 62 323 4.0 9.0 0.00 0.00 0.00 62 1019.2
20260507211547 62 165 0.0 8.0 0.00 0.00 0.00 61 1019.4
20260507210041 61 35 1.0 5.0 0.00 0.00 0.00 62 1019.5
20260507204534 60 0 0.0 4.0 0.00 0.00 0.00 66 1019.6
20260507203036 62 252 1.0 4.0 0.00 0.00 0.00 61 1019.8
20260507201535 59 200 1.0 4.0 0.00 0.00 0.00 64 1019.8
20260507200037 59 0 0.0 5.0 0.00 0.00 0.00 65 1020.0
20260507194538 59 0 0.0 5.0 0.00 0.00 0.00 65 1020.1
20260507193035 59 0 0.0 5.0 0.00 0.00 0.00 68 1020.2
20260507191535 59 0 1.0 5.0 0.00 0.00 0.00 63 1020.2
20260507190034 60 246 1.0 5.0 0.00 0.00 0.00 65 1020.3
20260507184536 58 159 2.0 4.0 0.00 0.00 0.00 66 1020.5
20260507183036 57 143 2.0 6.0 0.00 0.00 0.00 67 1020.5
20260507181535 57 0 0.0 4.0 0.00 0.00 0.00 69 1020.7
20260507180035 56 182 1.0 4.0 0.00 0.00 0.00 69 1020.7
20260507174551 55 225 1.0 6.0 0.00 0.00 0.00 71 1020.8
20260507173036 55 237 1.0 4.0 0.00 0.00 0.00 69 1020.8
20260507171547 56 198 2.0 5.0 0.00 0.00 0.00 70 1020.8
20260507170036 55 254 0.0 3.0 0.00 0.00 0.00 72 1020.8
20260507164537 54 219 1.0 5.0 0.00 0.00 0.00 71 1020.8
20260507163036 54 0 0.0 3.0 0.00 0.00 0.00 74 1021.0
20260507161539 54 193 1.0 6.0 0.00 0.00 0.00 74 1021.0
20260507154539 51 360 1.0 3.0 0.00 0.00 0.00 79 1021.0
20260507153038 51 360 1.0 4.0 0.00 0.00 0.00 80 1021.1
20260507151536 50 0 0.0 0.0 0.00 0.00 0.00 81 1021.2
20260507150038 49 0 0.0 4.0 0.00 0.00 0.00 81 1021.3
20260507144535 49 0 0.0 2.0 0.00 0.00 0.00 82 1021.3
20260507143035 49 0 0.0 2.0 0.00 0.00 0.00 83 1021.3
20260507141540 49 143 1.0 3.0 0.00 0.00 0.00 82 1021.2
20260507140043 48 130 1.0 3.0 0.00 0.00 0.00 82 1021.1
20260507134536 48 139 0.0 3.0 0.00 0.00 0.00 82 1021.0
20260507133036 48 0 0.0 3.0 0.00 0.00 0.00 82 1021.0
20260507131605 48 165 0.0 4.0 0.00 0.00 0.00 81 1020.8
20260507130039 48 219 0.0 2.0 0.00 0.00 0.00 82 1020.8
20260507124546 48 148 0.0 3.0 0.00 0.00 0.00 82 1020.8
20260507123043 48 170 0.0 1.0 0.00 0.00 0.00 82 1021.0
20260507121535 48 170 1.0 3.0 0.00 0.00 0.00 81 1021.0
20260507120040 49 0 0.0 2.0 0.00 0.00 0.00 81 1021.1
20260507114537 49 128 2.0 3.0 0.00 0.00 0.00 80 1021.3
20260507113100 49 144 1.0 3.0 0.00 0.00 0.00 80 1021.4
20260507111537 49 134 0.0 4.0 0.00 0.00 0.00 80 1021.3
20260507110039 49 0 0.0 2.0 0.00 0.00 0.00 80 1021.5
20260507104536 49 0 1.0 4.0 0.00 0.00 0.00 79 1021.4
20260507103033 50 138 1.0 4.0 0.00 0.00 0.00 79 1021.4
20260507101537 50 146 1.0 3.0 0.00 0.00 0.00 79 1021.5
20260507100051 50 0 0.0 5.0 0.00 0.00 0.00 79 1021.3
20260507094550 50 0 1.0 4.0 0.00 0.00 0.00 79 1021.3
20260507093038 51 0 0.0 5.0 0.00 0.00 0.00 79 1021.4
20260507091540 51 0 1.0 4.0 0.00 0.00 0.00 79 1021.5
20260507090039 51 0 0.0 3.0 0.00 0.00 0.00 80 1021.4
20260507084549 51 201 1.0 5.0 0.00 0.00 0.00 80 1021.4
20260507083036 51 0 0.0 4.0 0.00 0.00 0.00 82 1021.5
20260507081535 50 0 0.0 0.0 0.00 0.00 0.00 83 1021.6
20260507080035 50 0 0.0 3.0 0.00 0.00 0.00 84 1021.5
20260507074537 50 0 0.0 2.0 0.00 0.00 0.00 85 1021.7
20260507073037 50 0 0.0 1.0 0.00 0.00 0.00 86 1021.5
20260507071542 50 0 0.0 2.0 0.00 0.00 0.00 86 1021.5
20260507070042 50 0 0.0 2.0 0.00 0.00 0.00 87 1021.4
20260507064544 50 0 0.0 5.0 0.00 0.00 0.00 88 1021.5
20260507063037 51 306 1.0 2.0 0.00 0.00 0.00 88 1021.4
20260507061537 51 0 0.0 4.0 0.00 0.00 0.00 88 1021.5
20260507060040 51 0 0.0 4.0 0.00 0.00 0.00 88 1021.5
20260507054540 51 213 0.0 7.0 0.00 0.00 0.00 87 1021.5
20260507053038 52 184 1.0 4.0 0.00 0.00 0.00 86 1021.5
20260507051536 52 0 1.0 7.0 0.00 0.00 0.00 84 1021.6
20260507044540 53 183 1.0 6.0 0.00 0.00 0.00 80 1021.4
20260507043036 54 217 1.0 6.0 0.00 0.00 0.00 79 1021.4
20260507041536 54 190 0.0 3.0 0.00 0.00 0.00 79 1021.3
20260507040036 54 0 0.0 3.0 0.00 0.00 0.00 79 1021.3
20260507034540 54 255 0.0 4.0 0.00 0.00 0.00 79 1021.3
20260507033042 54 202 0.0 3.0 0.00 0.00 0.00 79 1021.1
20260507031536 54 0 0.0 3.0 0.00 0.00 0.00 78 1020.9